Вернуться в каталог

DELTA 1 DEB

АктивенSSO
NORAD 42092·DEBRIS·🇺🇸 United States

Запущен Dec 15, 1968 с Vandenberg Space Force Base

Loading…

Ближайшие Пролёты (ближайшие 24 часа)

TLE

СвежийSource: Space-Track

Эпоха: Sep 12, 2026, 12:17 UTC

1 42092U 68114U   26255.51201109  .00000505  00000-0  31242-2 0  9990
2 42092 101.6619   5.7982 0031254 342.2725  17.7259 12.60922683588971

Отслеживайте DELTA 1 DEB в реальном времени с AllMySat

Download on the App Store